| time (UTC) | temp F | wind direction | speed knots | gust knots | rain 1hr in | rain 24hr in | rain mn in | humidity % | barometer mb |
| 20260502214423 | 72 | 0.0 | 0.0 | 0.00 | 0.00 | 0.00 | 35 | 1019.7 | |
| 20260502213923 | 72 | 0.0 | 0.0 | 0.00 | 0.00 | 0.00 | 36 | 1019.6 | |
| 20260502213423 | 72 | 0.0 | 0.0 | 0.00 | 0.00 | 0.00 | 35 | 1019.7 | |
| 20260502212923 | 72 | 0.0 | 0.0 | 0.00 | 0.00 | 0.00 | 35 | 1019.7 | |
| 20260502212423 | 72 | 0.0 | 0.0 | 0.00 | 0.00 | 0.00 | 36 | 1019.8 | |
| 20260502211923 | 72 | 0.0 | 0.0 | 0.00 | 0.00 | 0.00 | 35 | 1019.7 | |
| 20260502211423 | 72 | 0.0 | 0.0 | 0.00 | 0.00 | 0.00 | 35 | 1019.6 | |
| 20260502210923 | 73 | 0.0 | 0.0 | 0.00 | 0.00 | 0.00 | 35 | 1019.6 | |
| 20260502210423 | 72 | 0.0 | 0.0 | 0.00 | 0.00 | 0.00 | 35 | 1019.9 | |
| 20260502205923 | 72 | 0.0 | 0.0 | 0.00 | 0.00 | 0.00 | 36 | 1019.9 | |
| 20260502205423 | 73 | 0.0 | 0.0 | 0.00 | 0.00 | 0.00 | 35 | 1019.9 | |
| 20260502204923 | 73 | 0.0 | 0.0 | 0.00 | 0.00 | 0.00 | 35 | 1019.8 | |
| 20260502204423 | 73 | 0.0 | 0.0 | 0.00 | 0.00 | 0.00 | 34 | 1019.9 | |
| 20260502203923 | 73 | 0.0 | 0.0 | 0.00 | 0.00 | 0.00 | 33 | 1019.9 | |
| 20260502203423 | 73 | 0.0 | 0.0 | 0.00 | 0.00 | 0.00 | 33 | 1019.9 | |
| 20260502202923 | 73 | 0.0 | 0.0 | 0.00 | 0.00 | 0.00 | 33 | 1020.2 | |
| 20260502202423 | 73 | 0.0 | 0.0 | 0.00 | 0.00 | 0.00 | 33 | 1020.5 | |
| 20260502201923 | 74 | 0.0 | 0.0 | 0.00 | 0.00 | 0.00 | 34 | 1020.0 | |
| 20260502201423 | 74 | 0.0 | 0.0 | 0.00 | 0.00 | 0.00 | 34 | 1019.9 | |
| 20260502200923 | 74 | 0.0 | 0.0 | 0.00 | 0.00 | 0.00 | 34 | 1020.1 | |
| 20260502200423 | 74 | 0.0 | 0.0 | 0.00 | 0.00 | 0.00 | 34 | 1019.6 | |
| 20260502195923 | 74 | 0.0 | 0.0 | 0.00 | 0.00 | 0.00 | 33 | 1020.0 | |
| 20260502195423 | 74 | 0.0 | 0.0 | 0.00 | 0.00 | 0.00 | 34 | 1019.9 | |
| 20260502194923 | 74 | 0.0 | 0.0 | 0.00 | 0.00 | 0.00 | 33 | 1020.3 | |
| 20260502194423 | 74 | 0.0 | 0.0 | 0.00 | 0.00 | 0.00 | 33 | 1019.9 | |
| 20260502193923 | 74 | 0.0 | 0.0 | 0.00 | 0.00 | 0.00 | 32 | 1019.9 | |
| 20260502193424 | 74 | 0.0 | 0.0 | 0.00 | 0.00 | 0.00 | 33 | 1020.4 | |
| 20260502192923 | 74 | 0.0 | 0.0 | 0.00 | 0.00 | 0.00 | 32 | 1019.8 | |
| 20260502192423 | 74 | 0.0 | 0.0 | 0.00 | 0.00 | 0.00 | 32 | 1020.2 | |
| 20260502191923 | 74 | 0.0 | 0.0 | 0.00 | 0.00 | 0.00 | 33 | 1020.3 | |
| 20260502191423 | 74 | 0.0 | 0.0 | 0.00 | 0.00 | 0.00 | 32 | 1019.8 | |
| 20260502190923 | 74 | 0.0 | 0.0 | 0.00 | 0.00 | 0.00 | 32 | 1020.0 | |
| 20260502190423 | 74 | 0.0 | 0.0 | 0.00 | 0.00 | 0.00 | 32 | 1019.9 | |
| 20260502185923 | 74 | 0.0 | 0.0 | 0.00 | 0.00 | 0.00 | 32 | 1020.1 | |
| 20260502185423 | 74 | 0.0 | 0.0 | 0.00 | 0.00 | 0.00 | 32 | 1019.8 | |
| 20260502184923 | 74 | 0.0 | 0.0 | 0.00 | 0.00 | 0.00 | 32 | 1020.0 | |
| 20260502184423 | 73 | 0.0 | 0.0 | 0.00 | 0.00 | 0.00 | 32 | 1020.1 | |
| 20260502183923 | 73 | 0.0 | 0.0 | 0.00 | 0.00 | 0.00 | 31 | 1019.7 | |
| 20260502183423 | 73 | 0.0 | 0.0 | 0.00 | 0.00 | 0.00 | 31 | 1018.3 | |
| 20260502182922 | 71 | 0.0 | 0.0 | 0.00 | 0.00 | 0.00 | 27 | 1022.0 | |
| 20260502182422 | 73 | 0.0 | 0.0 | 0.00 | 0.00 | 0.00 | 27 | 1021.1 | |
| 20260502181923 | 74 | 0.0 | 0.0 | 0.00 | 0.00 | 0.00 | 32 | 1020.1 | |
| 20260502181422 | 74 | 0.0 | 0.0 | 0.00 | 0.00 | 0.00 | 32 | 1019.8 | |
| 20260502180922 | 74 | 0.0 | 0.0 | 0.00 | 0.00 | 0.00 | 32 | 1019.8 | |
| 20260502180422 | 74 | 0.0 | 0.0 | 0.00 | 0.00 | 0.00 | 32 | 1019.9 | |
| 20260502170422 | 74 | 0.0 | 0.0 | 0.00 | 0.00 | 0.00 | 30 | 1020.0 | |
| 20260502163922 | 74 | 0.0 | 0.0 | 0.00 | 0.00 | 0.00 | 24 | 1020.1 | |
| 20260502163422 | 74 | 0.0 | 0.0 | 0.00 | 0.00 | 0.00 | 27 | 1020.2 | |
| 20260502162922 | 74 | 0.0 | 0.0 | 0.00 | 0.00 | 0.00 | 27 | 1020.4 | |
| 20260502162422 | 74 | 0.0 | 0.0 | 0.00 | 0.00 | 0.00 | 24 | 1020.5 | |
| 20260502161922 | 75 | 0.0 | 0.0 | 0.00 | 0.00 | 0.00 | 25 | 1020.1 | |
| 20260502161423 | 74 | 0.0 | 0.0 | 0.00 | 0.00 | 0.00 | 26 | 1020.5 | |
| 20260502160922 | 74 | 0.0 | 0.0 | 0.00 | 0.00 | 0.00 | 26 | 1020.6 | |
| 20260502160422 | 75 | 0.0 | 0.0 | 0.00 | 0.00 | 0.00 | 26 | 1020.4 | |
| 20260502151922 | 74 | 0.0 | 0.0 | 0.00 | 0.00 | 0.00 | 27 | 1020.9 | |
| 20260502151422 | 74 | 0.0 | 0.0 | 0.00 | 0.00 | 0.00 | 29 | 1021.4 | |
| 20260502150922 | 74 | 0.0 | 0.0 | 0.00 | 0.00 | 0.00 | 29 | 1021.5 | |
| 20260502150422 | 74 | 0.0 | 0.0 | 0.00 | 0.00 | 0.00 | 26 | 1021.2 | |
| 20260502130422 | 73 | 0.0 | 0.0 | 0.00 | 0.00 | 0.00 | 28 | 1022.5 | |
| 20260502123422 | 73 | 0.0 | 0.0 | 0.00 | 0.00 | 0.00 | 30 | 1023.2 | |
| 20260502122922 | 73 | 0.0 | 0.0 | 0.00 | 0.00 | 0.00 | 30 | 1023.4 | |
| 20260502122422 | 74 | 0.0 | 0.0 | 0.00 | 0.00 | 0.00 | 32 | 1022.0 | |
| 20260502121922 | 72 | 0.0 | 0.0 | 0.00 | 0.00 | 0.00 | 32 | 1023.6 | |
| 20260502121432 | 72 | 0.0 | 0.0 | 0.00 | 0.00 | 0.00 | 32 | 1023.5 | |
| 20260502120922 | 73 | 0.0 | 0.0 | 0.00 | 0.00 | 0.00 | 32 | 1023.6 | |
| 20260502120422 | 73 | 0.0 | 0.0 | 0.00 | 0.00 | 0.00 | 33 | 1024.0 | |
| 20260502115922 | 73 | 0.0 | 0.0 | 0.00 | 0.00 | 0.00 | 28 | 1023.2 | |
| 20260502115422 | 73 | 0.0 | 0.0 | 0.00 | 0.00 | 0.00 | 34 | 1023.8 | |
| 20260502114922 | 73 | 0.0 | 0.0 | 0.00 | 0.00 | 0.00 | 30 | 1024.2 | |
| 20260502114422 | 73 | 0.0 | 0.0 | 0.00 | 0.00 | 0.00 | 33 | 1023.1 | |
| 20260502113922 | 72 | 0.0 | 0.0 | 0.00 | 0.00 | 0.00 | 29 | 1023.9 | |
| 20260502113422 | 73 | 0.0 | 0.0 | 0.00 | 0.00 | 0.00 | 28 | 1023.5 | |
| 20260502112922 | 72 | 0.0 | 0.0 | 0.00 | 0.00 | 0.00 | 31 | 1024.0 | |
| 20260502112422 | 72 | 0.0 | 0.0 | 0.00 | 0.00 | 0.00 | 30 | 1023.9 | |
| 20260502111922 | 72 | 0.0 | 0.0 | 0.00 | 0.00 | 0.00 | 32 | 1024.2 | |
| 20260502111422 | 72 | 0.0 | 0.0 | 0.00 | 0.00 | 0.00 | 32 | 1024.2 | |
| 20260502110922 | 72 | 0.0 | 0.0 | 0.00 | 0.00 | 0.00 | 32 | 1024.8 | |
| 20260502110422 | 72 | 0.0 | 0.0 | 0.00 | 0.00 | 0.00 | 30 | 1024.7 | |
| 20260502105922 | 72 | 0.0 | 0.0 | 0.00 | 0.00 | 0.00 | 31 | 1023.5 | |
| 20260502105422 | 71 | 0.0 | 0.0 | 0.00 | 0.00 | 0.00 | 33 | 1024.5 | |
| 20260502104922 | 71 | 0.0 | 0.0 | 0.00 | 0.00 | 0.00 | 33 | 1024.2 | |
| 20260502104422 | 71 | 0.0 | 0.0 | 0.00 | 0.00 | 0.00 | 35 | 1024.6 | |
| 20260502103922 | 71 | 0.0 | 0.0 | 0.00 | 0.00 | 0.00 | 34 | 1024.6 | |
| 20260502103422 | 71 | 0.0 | 0.0 | 0.00 | 0.00 | 0.00 | 35 | 1024.8 | |
| 20260502102922 | 71 | 0.0 | 0.0 | 0.00 | 0.00 | 0.00 | 33 | 1024.7 | |
| 20260502102422 | 71 | 0.0 | 0.0 | 0.00 | 0.00 | 0.00 | 34 | 1024.9 | |
| 20260502101922 | 71 | 0.0 | 0.0 | 0.00 | 0.00 | 0.00 | 34 | 1025.0 | |
| 20260502101422 | 71 | 0.0 | 0.0 | 0.00 | 0.00 | 0.00 | 34 | 1025.0 | |
| 20260502100922 | 71 | 0.0 | 0.0 | 0.00 | 0.00 | 0.00 | 36 | 1025.0 | |
| 20260502100422 | 71 | 0.0 | 0.0 | 0.00 | 0.00 | 0.00 | 36 | 1025.0 | |
| 20260502091422 | 71 | 0.0 | 0.0 | 0.00 | 0.00 | 0.00 | 32 | 1025.6 | |
| 20260502090922 | 71 | 0.0 | 0.0 | 0.00 | 0.00 | 0.00 | 34 | 1025.9 | |
| 20260502090422 | 71 | 0.0 | 0.0 | 0.00 | 0.00 | 0.00 | 34 | 1025.8 | |
| 20260502071422 | 71 | 0.0 | 0.0 | 0.00 | 0.00 | 0.00 | 35 | 1026.1 | |
| 20260502070922 | 71 | 0.0 | 0.0 | 0.00 | 0.00 | 0.00 | 35 | 1026.1 | |
| 20260502070422 | 71 | 0.0 | 0.0 | 0.00 | 0.00 | 0.00 | 36 | 1026.2 | |
| 20260502065922 | 71 | 0.0 | 0.0 | 0.00 | 0.00 | 0.00 | 36 | 1026.3 | |
| 20260502065422 | 71 | 0.0 | 0.0 | 0.00 | 0.00 | 0.00 | 36 | 1026.2 | |
| 20260502064922 | 71 | 0.0 | 0.0 | 0.00 | 0.00 | 0.00 | 36 | 1026.3 | |
| 20260502064422 | 71 | 0.0 | 0.0 | 0.00 | 0.00 | 0.00 | 36 | 1026.2 | |
| 20260502063922 | 70 | 0.0 | 0.0 | 0.00 | 0.00 | 0.00 | 37 | 1026.2 | |
| 20260502063422 | 70 | 0.0 | 0.0 | 0.00 | 0.00 | 0.00 | 39 | 1026.1 | |
| 20260502062922 | 70 | 0.0 | 0.0 | 0.00 | 0.00 | 0.00 | 39 | 1026.2 | |
| 20260502062422 | 70 | 0.0 | 0.0 | 0.00 | 0.00 | 0.00 | 39 | 1026.3 | |
| 20260502061922 | 70 | 0.0 | 0.0 | 0.00 | 0.00 | 0.00 | 40 | 1026.3 | |
| 20260502061422 | 70 | 0.0 | 0.0 | 0.00 | 0.00 | 0.00 | 40 | 1026.2 | |
| 20260502060922 | 69 | 0.0 | 0.0 | 0.00 | 0.00 | 0.00 | 39 | 1026.2 | |
| 20260502060422 | 69 | 0.0 | 0.0 | 0.00 | 0.00 | 0.00 | 39 | 1026.3 | |
| 20260502055922 | 69 | 0.0 | 0.0 | 0.00 | 0.00 | 0.00 | 39 | 1026.3 | |
| 20260502055422 | 69 | 0.0 | 0.0 | 0.00 | 0.00 | 0.00 | 39 | 1026.4 | |
| 20260502054922 | 69 | 0.0 | 0.0 | 0.00 | 0.00 | 0.00 | 38 | 1026.0 | |
| 20260502054422 | 69 | 0.0 | 0.0 | 0.00 | 0.00 | 0.00 | 39 | 1026.3 | |
| 20260502053922 | 69 | 0.0 | 0.0 | 0.00 | 0.00 | 0.00 | 39 | 1026.2 | |
| 20260502053422 | 68 | 0.0 | 0.0 | 0.00 | 0.00 | 0.00 | 39 | 1026.5 | |
| 20260502052922 | 68 | 0.0 | 0.0 | 0.00 | 0.00 | 0.00 | 39 | 1026.2 | |
| 20260502052422 | 68 | 0.0 | 0.0 | 0.00 | 0.00 | 0.00 | 39 | 1026.0 | |
| 20260502051922 | 68 | 0.0 | 0.0 | 0.00 | 0.00 | 0.00 | 40 | 1026.3 | |
| 20260502051422 | 68 | 0.0 | 0.0 | 0.00 | 0.00 | 0.00 | 40 | 1026.4 | |
| 20260502050922 | 68 | 0.0 | 0.0 | 0.00 | 0.00 | 0.00 | 40 | 1026.4 | |
| 20260502050422 | 67 | 0.0 | 0.0 | 0.00 | 0.00 | 0.00 | 40 | 1026.5 | |
| 20260502045922 | 68 | 0.0 | 0.0 | 0.00 | 0.00 | 0.00 | 40 | 1026.4 | |
| 20260502045422 | 67 | 0.0 | 0.0 | 0.00 | 0.00 | 0.00 | 40 | 1026.3 | |
| 20260502044922 | 67 | 0.0 | 0.0 | 0.00 | 0.00 | 0.00 | 40 | 1026.4 | |
| 20260502044422 | 67 | 0.0 | 0.0 | 0.00 | 0.00 | 0.00 | 40 | 1026.5 | |
| 20260502043922 | 67 | 0.0 | 0.0 | 0.00 | 0.00 | 0.00 | 41 | 1026.5 | |
| 20260502043422 | 67 | 0.0 | 0.0 | 0.00 | 0.00 | 0.00 | 40 | 1026.6 | |
| 20260502042922 | 67 | 0.0 | 0.0 | 0.00 | 0.00 | 0.00 | 40 | 1026.6 | |
| 20260502042422 | 67 | 0.0 | 0.0 | 0.00 | 0.00 | 0.00 | 40 | 1026.6 | |
| 20260502041922 | 66 | 0.0 | 0.0 | 0.00 | 0.00 | 0.00 | 40 | 1026.5 | |
| 20260502041422 | 66 | 0.0 | 0.0 | 0.00 | 0.00 | 0.00 | 40 | 1026.6 | |
| 20260502040922 | 66 | 0.0 | 0.0 | 0.00 | 0.00 | 0.00 | 40 | 1026.7 | |
| 20260502040422 | 66 | 0.0 | 0.0 | 0.00 | 0.00 | 0.00 | 40 | 1026.6 | |
| 20260502035922 | 66 | 0.0 | 0.0 | 0.00 | 0.00 | 0.00 | 40 | 1026.6 | |
| 20260502035422 | 66 | 0.0 | 0.0 | 0.00 | 0.00 | 0.00 | 40 | 1026.5 | |
| 20260502034922 | 66 | 0.0 | 0.0 | 0.00 | 0.00 | 0.00 | 40 | 1026.5 | |
| 20260502034421 | 66 | 0.0 | 0.0 | 0.00 | 0.00 | 0.00 | 40 | 1026.6 | |
| 20260502033922 | 66 | 0.0 | 0.0 | 0.00 | 0.00 | 0.00 | 40 | 1026.6 | |
| 20260502033422 | 66 | 0.0 | 0.0 | 0.00 | 0.00 | 0.00 | 40 | 1026.6 | |
| 20260502032921 | 66 | 0.0 | 0.0 | 0.00 | 0.00 | 0.00 | 40 | 1026.7 | |
| 20260502032421 | 66 | 0.0 | 0.0 | 0.00 | 0.00 | 0.00 | 40 | 1026.6 | |
| 20260502031922 | 66 | 0.0 | 0.0 | 0.00 | 0.00 | 0.00 | 40 | 1026.7 | |
| 20260502031421 | 66 | 0.0 | 0.0 | 0.00 | 0.00 | 0.00 | 40 | 1026.7 | |
| 20260502030921 | 66 | 0.0 | 0.0 | 0.00 | 0.00 | 0.00 | 40 | 1026.8 | |
| 20260502030421 | 66 | 0.0 | 0.0 | 0.00 | 0.00 | 0.00 | 40 | 1026.6 | |
| 20260502025922 | 66 | 0.0 | 0.0 | 0.00 | 0.00 | 0.00 | 40 | 1026.8 | |
| 20260502025421 | 66 | 0.0 | 0.0 | 0.00 | 0.00 | 0.00 | 40 | 1026.7 | |
| 20260502024921 | 66 | 0.0 | 0.0 | 0.00 | 0.00 | 0.00 | 40 | 1026.8 | |
| 20260502024421 | 66 | 0.0 | 0.0 | 0.00 | 0.00 | 0.00 | 40 | 1026.9 | |
| 20260502023921 | 66 | 0.0 | 0.0 | 0.00 | 0.00 | 0.00 | 40 | 1026.8 | |
| 20260502023421 | 66 | 0.0 | 0.0 | 0.00 | 0.00 | 0.00 | 40 | 1026.9 | |
| 20260502022921 | 67 | 0.0 | 0.0 | 0.00 | 0.00 | 0.00 | 39 | 1026.9 | |
| 20260502022421 | 67 | 0.0 | 0.0 | 0.00 | 0.00 | 0.00 | 40 | 1026.9 | |
| 20260502021921 | 67 | 0.0 | 0.0 | 0.00 | 0.00 | 0.00 | 39 | 1026.9 | |
| 20260502021421 | 67 | 0.0 | 0.0 | 0.00 | 0.00 | 0.00 | 39 | 1027.0 | |
| 20260502020921 | 67 | 0.0 | 0.0 | 0.00 | 0.00 | 0.00 | 39 | 1026.9 | |
| 20260502020421 | 67 | 0.0 | 0.0 | 0.00 | 0.00 | 0.00 | 39 | 1026.7 | |
| 20260502015921 | 67 | 0.0 | 0.0 | 0.00 | 0.00 | 0.00 | 39 | 1026.8 | |
| 20260502015421 | 67 | 0.0 | 0.0 | 0.00 | 0.00 | 0.00 | 39 | 1027.0 | |
| 20260502014921 | 67 | 0.0 | 0.0 | 0.00 | 0.00 | 0.00 | 39 | 1026.9 | |
| 20260502014421 | 67 | 0.0 | 0.0 | 0.00 | 0.00 | 0.00 | 39 | 1027.0 | |
| 20260502013921 | 67 | 0.0 | 0.0 | 0.00 | 0.00 | 0.00 | 39 | 1026.9 | |
| 20260502013421 | 67 | 0.0 | 0.0 | 0.00 | 0.00 | 0.00 | 39 | 1027.0 | |
| 20260502012921 | 67 | 0.0 | 0.0 | 0.00 | 0.00 | 0.00 | 39 | 1026.8 | |
| 20260502012421 | 67 | 0.0 | 0.0 | 0.00 | 0.00 | 0.00 | 39 | 1026.8 | |
| 20260502011921 | 67 | 0.0 | 0.0 | 0.00 | 0.00 | 0.00 | 39 | 1026.9 | |
| 20260502011422 | 67 | 0.0 | 0.0 | 0.00 | 0.00 | 0.00 | 39 | 1027.0 | |
| 20260502010921 | 67 | 0.0 | 0.0 | 0.00 | 0.00 | 0.00 | 39 | 1027.0 | |
| 20260502010421 | 67 | 0.0 | 0.0 | 0.00 | 0.00 | 0.00 | 40 | 1027.1 | |
| 20260502005921 | 67 | 0.0 | 0.0 | 0.00 | 0.00 | 0.00 | 39 | 1027.1 | |
| 20260502005421 | 67 | 0.0 | 0.0 | 0.00 | 0.00 | 0.00 | 39 | 1027.1 | |
| 20260502004921 | 67 | 0.0 | 0.0 | 0.00 | 0.00 | 0.00 | 39 | 1027.1 | |
| 20260502004421 | 67 | 0.0 | 0.0 | 0.00 | 0.00 | 0.00 | 39 | 1027.2 | |
| 20260502003921 | 67 | 0.0 | 0.0 | 0.00 | 0.00 | 0.00 | 39 | 1027.3 | |
| 20260502003421 | 67 | 0.0 | 0.0 | 0.00 | 0.00 | 0.00 | 39 | 1027.2 | |
| 20260502002921 | 67 | 0.0 | 0.0 | 0.00 | 0.00 | 0.00 | 39 | 1027.1 | |
| 20260502002421 | 67 | 0.0 | 0.0 | 0.00 | 0.00 | 0.00 | 39 | 1027.3 | |
| 20260502001921 | 67 | 0.0 | 0.0 | 0.00 | 0.00 | 0.00 | 39 | 1027.2 | |
| 20260502001421 | 67 | 0.0 | 0.0 | 0.00 | 0.00 | 0.00 | 39 | 1027.4 | |
| 20260502000921 | 67 | 0.0 | 0.0 | 0.00 | 0.00 | 0.00 | 39 | 1027.4 | |
| 20260502000424 | 67 | 0.0 | 0.0 | 0.00 | 0.00 | 0.00 | 39 | 1027.3 | |
| 20260501235921 | 67 | 0.0 | 0.0 | 0.00 | 0.00 | 0.00 | 39 | 1027.4 | |
| 20260501235421 | 67 | 0.0 | 0.0 | 0.00 | 0.00 | 0.00 | 39 | 1027.4 | |
| 20260501234921 | 67 | 0.0 | 0.0 | 0.00 | 0.00 | 0.00 | 39 | 1027.4 | |
| 20260501234421 | 68 | 0.0 | 0.0 | 0.00 | 0.00 | 0.00 | 39 | 1027.3 | |
| 20260501233921 | 68 | 0.0 | 0.0 | 0.00 | 0.00 | 0.00 | 39 | 1027.2 | |
| 20260501233421 | 67 | 0.0 | 0.0 | 0.00 | 0.00 | 0.00 | 39 | 1027.3 | |
| 20260501232921 | 68 | 0.0 | 0.0 | 0.00 | 0.00 | 0.00 | 39 | 1027.3 | |
| 20260501232421 | 68 | 0.0 | 0.0 | 0.00 | 0.00 | 0.00 | 39 | 1027.4 | |
| 20260501231922 | 68 | 0.0 | 0.0 | 0.00 | 0.00 | 0.00 | 39 | 1027.3 | |
| 20260501231421 | 68 | 0.0 | 0.0 | 0.00 | 0.00 | 0.00 | 39 | 1027.5 | |
| 20260501230921 | 68 | 0.0 | 0.0 | 0.00 | 0.00 | 0.00 | 39 | 1027.4 | |
| 20260501230421 | 68 | 0.0 | 0.0 | 0.00 | 0.00 | 0.00 | 39 | 1027.4 | |
| 20260501225921 | 68 | 0.0 | 0.0 | 0.00 | 0.00 | 0.00 | 39 | 1027.5 | |
| 20260501225421 | 68 | 0.0 | 0.0 | 0.00 | 0.00 | 0.00 | 38 | 1027.2 | |
| 20260501224921 | 68 | 0.0 | 0.0 | 0.00 | 0.00 | 0.00 | 39 | 1027.4 | |
| 20260501224421 | 68 | 0.0 | 0.0 | 0.00 | 0.00 | 0.00 | 38 | 1027.5 | |
| 20260501223921 | 68 | 0.0 | 0.0 | 0.00 | 0.00 | 0.00 | 39 | 1027.3 | |
| 20260501223421 | 68 | 0.0 | 0.0 | 0.00 | 0.00 | 0.00 | 39 | 1027.5 | |
| 20260501222921 | 68 | 0.0 | 0.0 | 0.00 | 0.00 | 0.00 | 39 | 1027.4 | |
| 20260501222421 | 68 | 0.0 | 0.0 | 0.00 | 0.00 | 0.00 | 39 | 1027.4 | |
| 20260501221921 | 68 | 0.0 | 0.0 | 0.00 | 0.00 | 0.00 | 39 | 1027.5 | |
| 20260501221421 | 68 | 0.0 | 0.0 | 0.00 | 0.00 | 0.00 | 39 | 1027.6 | |
| 20260501220921 | 68 | 0.0 | 0.0 | 0.00 | 0.00 | 0.00 | 38 | 1027.5 | |
| 20260501220421 | 68 | 0.0 | 0.0 | 0.00 | 0.00 | 0.00 | 38 | 1027.5 | |
| 20260501215921 | 68 | 0.0 | 0.0 | 0.00 | 0.00 | 0.00 | 38 | 1027.5 | |
| 20260501215421 | 68 | 0.0 | 0.0 | 0.00 | 0.00 | 0.00 | 38 | 1027.5 | |
| 20260501214921 | 69 | 0.0 | 0.0 | 0.00 | 0.00 | 0.00 | 38 | 1027.6 |